Year,Month,Day,Hour,Minute,Value (Times are PST for temperature in C)
2013,04,25,00,00,8.80
2013,04,25,00,01,8.80
2013,04,25,00,02,8.80
2013,04,25,00,03,8.80
2013,04,25,00,04,8.80
2013,04,25,00,05,8.80
2013,04,25,00,06,8.80
2013,04,25,00,07,8.80
2013,04,25,00,08,8.80
2013,04,25,00,09,8.80
2013,04,25,00,10,8.80
2013,04,25,00,11,8.80
2013,04,25,00,12,8.80
2013,04,25,00,13,8.80
2013,04,25,00,14,8.80
2013,04,25,00,15,8.80
2013,04,25,00,16,8.80
2013,04,25,00,17,8.80
2013,04,25,00,18,8.80
2013,04,25,00,19,8.80
2013,04,25,00,20,8.80
2013,04,25,00,21,8.80
2013,04,25,00,22,8.80
2013,04,25,00,23,8.80
2013,04,25,00,24,8.80
2013,04,25,00,25,8.80
2013,04,25,00,26,8.80
2013,04,25,00,27,8.80
2013,04,25,00,28,8.80
2013,04,25,00,29,8.80
2013,04,25,00,30,8.90
2013,04,25,00,31,8.90
2013,04,25,00,32,8.90
2013,04,25,00,33,8.90
2013,04,25,00,34,8.90
2013,04,25,00,35,8.90
2013,04,25,00,36,8.90
2013,04,25,00,37,8.90
2013,04,25,00,38,8.90
2013,04,25,00,39,8.90
2013,04,25,00,40,8.90
2013,04,25,00,41,8.90
2013,04,25,00,42,8.90
2013,04,25,00,43,9.00
2013,04,25,00,44,9.00
2013,04,25,00,45,9.00
2013,04,25,00,46,9.00
2013,04,25,00,47,9.00
2013,04,25,00,48,9.10
2013,04,25,00,49,9.10
2013,04,25,00,50,9.10
2013,04,25,00,51,9.20
2013,04,25,00,52,9.20
2013,04,25,00,53,9.20
2013,04,25,00,54,9.20
2013,04,25,00,55,9.20
2013,04,25,00,56,9.20
2013,04,25,00,57,9.20
2013,04,25,00,58,9.20
2013,04,25,00,59,9.20
2013,04,25,01,00,9.20
2013,04,25,01,01,9.10
2013,04,25,01,02,9.10
2013,04,25,01,03,9.10
2013,04,25,01,04,9.00
2013,04,25,01,05,9.00
2013,04,25,01,06,9.00
2013,04,25,01,07,8.90
2013,04,25,01,08,8.90
2013,04,25,01,09,8.90
2013,04,25,01,10,8.90
2013,04,25,01,11,8.90
2013,04,25,01,12,8.90
2013,04,25,01,13,8.90
2013,04,25,01,14,8.90
2013,04,25,01,15,9.00
2013,04,25,01,16,9.10
2013,04,25,01,17,9.10
2013,04,25,01,18,9.20
2013,04,25,01,19,9.20
2013,04,25,01,20,9.30
2013,04,25,01,21,9.30
2013,04,25,01,22,9.40
2013,04,25,01,23,9.40
2013,04,25,01,24,9.40
2013,04,25,01,25,9.40
2013,04,25,01,26,9.40
2013,04,25,01,27,9.40
2013,04,25,01,28,9.40
2013,04,25,01,29,9.40
2013,04,25,01,30,9.30
2013,04,25,01,31,9.30
2013,04,25,01,32,9.30
2013,04,25,01,33,9.30
2013,04,25,01,34,9.20
2013,04,25,01,35,9.20
2013,04,25,01,36,9.20
2013,04,25,01,37,9.20
2013,04,25,01,38,9.20
2013,04,25,01,39,9.20
2013,04,25,01,40,9.10
2013,04,25,01,41,9.00
2013,04,25,01,42,9.00
2013,04,25,01,43,8.90
2013,04,25,01,44,8.90
2013,04,25,01,45,8.90
2013,04,25,01,46,8.90
2013,04,25,01,47,9.00
2013,04,25,01,48,9.00
2013,04,25,01,49,9.10
2013,04,25,01,50,9.10
2013,04,25,01,51,9.10
2013,04,25,01,52,9.10
2013,04,25,01,53,9.10
2013,04,25,01,54,9.10
2013,04,25,01,55,9.10
2013,04,25,01,56,9.10
2013,04,25,01,57,9.10
2013,04,25,01,58,9.10
2013,04,25,01,59,9.00
2013,04,25,02,00,9.00
2013,04,25,02,01,9.00
2013,04,25,02,02,9.00
2013,04,25,02,03,8.90
2013,04,25,02,04,8.90
2013,04,25,02,05,8.90
2013,04,25,02,06,8.80
2013,04,25,02,07,8.80
2013,04,25,02,08,8.70
2013,04,25,02,09,8.70
2013,04,25,02,10,8.70
2013,04,25,02,11,8.70
2013,04,25,02,12,8.60
2013,04,25,02,13,8.60
2013,04,25,02,14,8.60
2013,04,25,02,15,8.60
2013,04,25,02,16,8.60
2013,04,25,02,17,8.60
2013,04,25,02,18,8.60
2013,04,25,02,19,8.60
2013,04,25,02,20,8.60
2013,04,25,02,21,8.60
2013,04,25,02,22,8.60
2013,04,25,02,23,8.50
2013,04,25,02,24,8.50
2013,04,25,02,25,8.50
2013,04,25,02,26,8.50
2013,04,25,02,27,8.50
2013,04,25,02,28,8.60
2013,04,25,02,29,8.60
2013,04,25,02,30,8.60
2013,04,25,02,31,8.70
2013,04,25,02,32,8.70
2013,04,25,02,33,8.70
2013,04,25,02,34,8.70
2013,04,25,02,35,8.70
2013,04,25,02,36,8.70
2013,04,25,02,37,8.70
2013,04,25,02,38,8.70
2013,04,25,02,39,8.70
2013,04,25,02,40,8.70
2013,04,25,02,41,8.70
2013,04,25,02,42,8.70
2013,04,25,02,43,8.70
2013,04,25,02,44,8.70
2013,04,25,02,45,8.60
2013,04,25,02,46,8.60
2013,04,25,02,47,8.60
2013,04,25,02,48,8.60
2013,04,25,02,49,8.50
2013,04,25,02,50,8.50
2013,04,25,02,51,8.50
2013,04,25,02,52,8.50
2013,04,25,02,53,8.40
2013,04,25,02,54,8.30
2013,04,25,02,55,8.20
2013,04,25,02,56,8.20
2013,04,25,02,57,8.20
2013,04,25,02,58,8.20
2013,04,25,02,59,8.20
2013,04,25,03,00,8.10
2013,04,25,03,01,8.10
2013,04,25,03,02,8.10
2013,04,25,03,03,8.10
2013,04,25,03,04,8.10
2013,04,25,03,05,8.10
2013,04,25,03,06,8.10
2013,04,25,03,07,8.00
2013,04,25,03,08,8.00
2013,04,25,03,09,8.00
2013,04,25,03,10,8.00
2013,04,25,03,11,8.00
2013,04,25,03,12,8.00
2013,04,25,03,13,8.00
2013,04,25,03,14,7.90
2013,04,25,03,15,7.90
2013,04,25,03,16,7.90
2013,04,25,03,17,7.90
2013,04,25,03,18,7.90
2013,04,25,03,19,7.80
2013,04,25,03,20,7.80
2013,04,25,03,21,7.80
2013,04,25,03,22,7.80
2013,04,25,03,23,7.90
2013,04,25,03,24,7.90
2013,04,25,03,25,7.80
2013,04,25,03,26,7.80
2013,04,25,03,27,7.80
2013,04,25,03,28,7.80
2013,04,25,03,29,7.80
2013,04,25,03,30,7.80
2013,04,25,03,31,7.80
2013,04,25,03,32,7.80
2013,04,25,03,33,7.80
2013,04,25,03,34,7.80
2013,04,25,03,35,7.80
2013,04,25,03,36,7.80
2013,04,25,03,37,7.80
2013,04,25,03,38,7.80
2013,04,25,03,39,7.80
2013,04,25,03,40,7.80
2013,04,25,03,41,7.80
2013,04,25,03,42,7.80
2013,04,25,03,43,7.80
2013,04,25,03,44,7.80
2013,04,25,03,45,7.80
2013,04,25,03,46,7.80
2013,04,25,03,47,7.80
2013,04,25,03,48,7.80
2013,04,25,03,49,7.80
2013,04,25,03,50,7.80
2013,04,25,03,51,7.80
2013,04,25,03,52,7.80
2013,04,25,03,53,7.80
2013,04,25,03,54,7.80
2013,04,25,03,55,7.80
2013,04,25,03,56,7.80
2013,04,25,03,57,7.80
2013,04,25,03,58,7.80
2013,04,25,03,59,7.80
2013,04,25,04,00,7.80
2013,04,25,04,01,7.90
2013,04,25,04,02,7.90
2013,04,25,04,03,7.90
2013,04,25,04,04,7.90
2013,04,25,04,05,7.90
2013,04,25,04,06,8.00
2013,04,25,04,07,8.00
2013,04,25,04,08,8.00
2013,04,25,04,09,8.10
2013,04,25,04,10,8.10
2013,04,25,04,11,8.20
2013,04,25,04,12,8.20
2013,04,25,04,13,8.20
2013,04,25,04,14,8.20
2013,04,25,04,15,8.30
2013,04,25,04,16,8.30
2013,04,25,04,17,8.40
2013,04,25,04,18,8.40
2013,04,25,04,19,8.40
2013,04,25,04,20,8.40
2013,04,25,04,21,8.40
2013,04,25,04,22,8.40
2013,04,25,04,23,8.40
2013,04,25,04,24,8.40
2013,04,25,04,25,8.40
2013,04,25,04,26,8.40
2013,04,25,04,27,8.40
2013,04,25,04,28,8.40
2013,04,25,04,29,8.40
2013,04,25,04,30,8.40
2013,04,25,04,31,8.30
2013,04,25,04,32,8.30
2013,04,25,04,33,8.20
2013,04,25,04,34,8.20
2013,04,25,04,35,8.10
2013,04,25,04,36,8.10
2013,04,25,04,37,8.10
2013,04,25,04,38,8.00
2013,04,25,04,39,8.00
2013,04,25,04,40,8.00
2013,04,25,04,41,8.00
2013,04,25,04,42,8.00
2013,04,25,04,43,8.00
2013,04,25,04,44,8.00
2013,04,25,04,45,8.00
2013,04,25,04,46,8.00
2013,04,25,04,47,8.00
2013,04,25,04,48,8.00
2013,04,25,04,49,8.00
2013,04,25,04,50,8.00
2013,04,25,04,51,8.00
2013,04,25,04,52,8.00
2013,04,25,04,53,8.00
2013,04,25,04,54,8.00
2013,04,25,04,55,7.90
2013,04,25,04,56,7.90
2013,04,25,04,57,7.90
2013,04,25,04,58,7.80
2013,04,25,04,59,7.80
2013,04,25,05,00,7.80
2013,04,25,05,01,7.80
2013,04,25,05,02,7.80
2013,04,25,05,03,7.80
2013,04,25,05,04,7.80
2013,04,25,05,05,7.90
2013,04,25,05,06,7.90
2013,04,25,05,07,7.90
2013,04,25,05,08,8.00
2013,04,25,05,09,8.00
2013,04,25,05,10,8.00
2013,04,25,05,11,8.00
2013,04,25,05,12,8.00
2013,04,25,05,13,8.00
2013,04,25,05,14,7.90
2013,04,25,05,15,7.90
2013,04,25,05,16,7.90
2013,04,25,05,17,7.90
2013,04,25,05,18,7.80
2013,04,25,05,19,7.80
2013,04,25,05,20,7.80
2013,04,25,05,21,7.80
2013,04,25,05,22,7.70
2013,04,25,05,23,7.70
2013,04,25,05,24,7.70
2013,04,25,05,25,7.60
2013,04,25,05,26,7.60
2013,04,25,05,27,7.60
2013,04,25,05,28,7.60
2013,04,25,05,29,7.50
2013,04,25,05,30,7.50
2013,04,25,05,31,7.50
2013,04,25,05,32,7.50
2013,04,25,05,33,7.50
2013,04,25,05,34,7.50
2013,04,25,05,35,7.40
2013,04,25,05,36,7.40
2013,04,25,05,37,7.40
2013,04,25,05,38,7.30
2013,04,25,05,39,7.30
2013,04,25,05,40,7.30
2013,04,25,05,41,7.30
2013,04,25,05,42,7.30
2013,04,25,05,43,7.30
2013,04,25,05,44,7.30
2013,04,25,05,45,7.30
2013,04,25,05,46,7.30
2013,04,25,05,47,7.30
2013,04,25,05,48,7.30
2013,04,25,05,49,7.20
2013,04,25,05,50,7.20
2013,04,25,05,51,7.20
2013,04,25,05,52,7.10
2013,04,25,05,53,7.10
2013,04,25,05,54,7.10
2013,04,25,05,55,7.10
2013,04,25,05,56,7.00
2013,04,25,05,57,7.00
2013,04,25,05,58,7.10
2013,04,25,05,59,7.10
2013,04,25,06,00,7.10
2013,04,25,06,01,7.20
2013,04,25,06,02,7.20
2013,04,25,06,03,7.30
2013,04,25,06,04,7.30
2013,04,25,06,05,7.30
2013,04,25,06,06,7.30
2013,04,25,06,07,7.30
2013,04,25,06,08,7.30
2013,04,25,06,09,7.30
2013,04,25,06,10,7.30
2013,04,25,06,11,7.20
2013,04,25,06,12,7.20
2013,04,25,06,13,7.20
2013,04,25,06,14,7.20
2013,04,25,06,15,7.20
2013,04,25,06,16,7.20
2013,04,25,06,17,7.20
2013,04,25,06,18,7.20
2013,04,25,06,19,7.20
2013,04,25,06,20,7.30
2013,04,25,06,21,7.30
2013,04,25,06,22,7.30
2013,04,25,06,23,7.30
2013,04,25,06,24,7.30
2013,04,25,06,25,7.30
2013,04,25,06,26,7.30
2013,04,25,06,27,7.30
2013,04,25,06,28,7.30
2013,04,25,06,29,7.30
2013,04,25,06,30,7.30
2013,04,25,06,31,7.30
2013,04,25,06,32,7.40
2013,04,25,06,33,7.40
2013,04,25,06,34,7.50
2013,04,25,06,35,7.60
2013,04,25,06,36,7.60
2013,04,25,06,37,7.60
2013,04,25,06,38,7.70
2013,04,25,06,39,7.70
2013,04,25,06,40,7.70
2013,04,25,06,41,7.70
2013,04,25,06,42,7.80
2013,04,25,06,43,7.80
2013,04,25,06,44,7.80
2013,04,25,06,45,7.90
2013,04,25,06,46,7.90
2013,04,25,06,47,7.90
2013,04,25,06,48,8.00
2013,04,25,06,49,8.00
2013,04,25,06,50,8.10
2013,04,25,06,51,8.10
2013,04,25,06,52,8.20
2013,04,25,06,53,8.20
2013,04,25,06,54,8.20
2013,04,25,06,55,8.30
2013,04,25,06,56,8.30
2013,04,25,06,57,8.30
2013,04,25,06,58,8.40
2013,04,25,06,59,8.40
2013,04,25,07,00,8.40
2013,04,25,07,01,8.40
2013,04,25,07,02,8.30
2013,04,25,07,03,8.30
2013,04,25,07,04,8.30
2013,04,25,07,05,8.20
2013,04,25,07,06,8.20
2013,04,25,07,07,8.20
2013,04,25,07,08,8.20
2013,04,25,07,09,8.20
2013,04,25,07,10,8.20
2013,04,25,07,11,8.20
2013,04,25,07,12,8.20
2013,04,25,07,13,8.20
2013,04,25,07,14,8.20
2013,04,25,07,15,8.20
2013,04,25,07,16,8.20
2013,04,25,07,17,8.20
2013,04,25,07,18,8.20
2013,04,25,07,19,8.20
2013,04,25,07,20,8.20
2013,04,25,07,21,8.20
2013,04,25,07,22,8.20
2013,04,25,07,23,8.20
2013,04,25,07,24,8.20
2013,04,25,07,25,8.20
2013,04,25,07,26,8.20
2013,04,25,07,27,8.20
2013,04,25,07,28,8.20
2013,04,25,07,29,8.30
2013,04,25,07,30,8.30
2013,04,25,07,31,8.30
2013,04,25,07,32,8.40
2013,04,25,07,33,8.40
2013,04,25,07,34,8.50
2013,04,25,07,35,8.50
2013,04,25,07,36,8.50
2013,04,25,07,37,8.50
2013,04,25,07,38,8.60
2013,04,25,07,39,8.60
2013,04,25,07,40,8.70
2013,04,25,07,41,8.70
2013,04,25,07,42,8.80
2013,04,25,07,43,8.80
2013,04,25,07,44,8.90
2013,04,25,07,45,9.00
2013,04,25,07,46,9.00
2013,04,25,07,47,9.10
2013,04,25,07,48,9.20
2013,04,25,07,49,9.30
2013,04,25,07,50,9.40
2013,04,25,07,51,9.50
2013,04,25,07,52,9.50
2013,04,25,07,53,9.60
2013,04,25,07,54,9.70
2013,04,25,07,55,9.70
2013,04,25,07,56,9.70
2013,04,25,07,57,9.80
2013,04,25,07,58,9.80
2013,04,25,07,59,9.80
2013,04,25,08,00,9.90
2013,04,25,08,01,9.90
2013,04,25,08,02,10.00
2013,04,25,08,03,10.10
2013,04,25,08,04,10.10
2013,04,25,08,05,10.20
2013,04,25,08,06,10.30
2013,04,25,08,07,10.30
2013,04,25,08,08,10.30
2013,04,25,08,09,10.40
2013,04,25,08,10,10.40
2013,04,25,08,11,10.40
2013,04,25,08,12,10.60
2013,04,25,08,13,10.60
2013,04,25,08,14,10.60
2013,04,25,08,15,10.60
2013,04,25,08,16,10.60
2013,04,25,08,17,10.70
2013,04,25,08,18,10.80
2013,04,25,08,19,10.80
2013,04,25,08,20,10.90
2013,04,25,08,21,11.00
2013,04,25,08,22,11.10
2013,04,25,08,23,11.10
2013,04,25,08,24,11.10
2013,04,25,08,25,11.10
2013,04,25,08,26,11.10
2013,04,25,08,27,11.10
2013,04,25,08,28,11.00
2013,04,25,08,29,11.00
2013,04,25,08,30,11.10
2013,04,25,08,31,11.10
2013,04,25,08,32,11.20
2013,04,25,08,33,11.30
2013,04,25,08,34,11.40
2013,04,25,08,35,11.40
2013,04,25,08,36,11.40
2013,04,25,08,37,11.40
2013,04,25,08,38,11.60
2013,04,25,08,39,11.60
2013,04,25,08,40,11.70
2013,04,25,08,41,11.80
2013,04,25,08,42,11.90
2013,04,25,08,43,11.90
2013,04,25,08,44,11.90
2013,04,25,08,45,11.90
2013,04,25,08,46,11.90
2013,04,25,08,47,11.90
2013,04,25,08,48,12.00
2013,04,25,08,49,12.00
2013,04,25,08,50,12.10
2013,04,25,08,51,12.20
2013,04,25,08,52,12.20
2013,04,25,08,53,12.30
2013,04,25,08,54,12.30
2013,04,25,08,55,12.40
2013,04,25,08,56,12.50
2013,04,25,08,57,12.50
2013,04,25,08,58,12.50
2013,04,25,08,59,12.50
2013,04,25,09,00,12.40
2013,04,25,09,01,12.30
2013,04,25,09,02,12.30
2013,04,25,09,03,12.30
2013,04,25,09,04,12.20
2013,04,25,09,05,12.10
2013,04,25,09,06,12.10
2013,04,25,09,07,12.10
2013,04,25,09,08,12.10
2013,04,25,09,09,12.20
2013,04,25,09,10,12.20
2013,04,25,09,11,12.20
2013,04,25,09,12,12.30
2013,04,25,09,13,12.30
2013,04,25,09,14,12.30
2013,04,25,09,15,12.40
2013,04,25,09,16,12.40
2013,04,25,09,17,12.40
2013,04,25,09,18,12.30
2013,04,25,09,19,12.30
2013,04,25,09,20,12.40
2013,04,25,09,21,12.40
2013,04,25,09,22,12.40
2013,04,25,09,23,12.40
2013,04,25,09,24,12.40
2013,04,25,09,25,12.40
2013,04,25,09,26,12.40
2013,04,25,09,27,12.40
2013,04,25,09,28,12.40
2013,04,25,09,29,12.50
2013,04,25,09,30,12.60
2013,04,25,09,31,12.60
2013,04,25,09,32,12.60
2013,04,25,09,33,12.60
2013,04,25,09,34,12.60
2013,04,25,09,35,12.70
2013,04,25,09,36,12.70
2013,04,25,09,37,12.70
2013,04,25,09,38,12.80
2013,04,25,09,39,12.70
2013,04,25,09,40,12.70
2013,04,25,09,41,12.70
2013,04,25,09,42,12.70
2013,04,25,09,43,12.70
2013,04,25,09,44,12.70
2013,04,25,09,45,12.60
2013,04,25,09,46,12.60
2013,04,25,09,47,12.50
2013,04,25,09,48,12.50
2013,04,25,09,49,12.40
2013,04,25,09,50,12.50
2013,04,25,09,51,12.40
2013,04,25,09,52,12.40
2013,04,25,09,53,12.40
2013,04,25,09,54,12.40
2013,04,25,09,55,12.30
2013,04,25,09,56,12.30
2013,04,25,09,57,12.30
2013,04,25,09,58,12.30
2013,04,25,09,59,12.30
2013,04,25,10,00,12.40
2013,04,25,10,01,12.40
2013,04,25,10,02,12.50
2013,04,25,10,03,12.50
2013,04,25,10,04,12.60
2013,04,25,10,05,12.70
2013,04,25,10,06,12.80
2013,04,25,10,07,12.80
2013,04,25,10,08,12.90
2013,04,25,10,09,12.90
2013,04,25,10,10,13.00
2013,04,25,10,11,13.00
2013,04,25,10,12,13.10
2013,04,25,10,13,13.10
2013,04,25,10,14,13.10
2013,04,25,10,15,13.00
2013,04,25,10,16,13.00
2013,04,25,10,17,13.00
2013,04,25,10,18,13.10
2013,04,25,10,19,13.10
2013,04,25,10,20,13.10
2013,04,25,10,21,13.00
2013,04,25,10,22,12.90
2013,04,25,10,23,12.80
2013,04,25,10,24,12.80
2013,04,25,10,25,12.80
2013,04,25,10,26,12.80
2013,04,25,10,27,12.80
2013,04,25,10,28,12.80
2013,04,25,10,29,12.80
2013,04,25,10,30,12.80
2013,04,25,10,31,12.80
2013,04,25,10,32,12.80
2013,04,25,10,33,12.80
2013,04,25,10,34,12.80
2013,04,25,10,35,12.80
2013,04,25,10,36,12.80
2013,04,25,10,37,12.80
2013,04,25,10,38,12.80
2013,04,25,10,39,12.80
2013,04,25,10,40,12.80
2013,04,25,10,41,12.80
2013,04,25,10,42,12.80
2013,04,25,10,43,12.80
2013,04,25,10,44,12.80
2013,04,25,10,45,12.80
2013,04,25,10,46,12.90
2013,04,25,10,47,12.90
2013,04,25,10,48,12.90
2013,04,25,10,49,12.90
2013,04,25,10,50,13.00
2013,04,25,10,51,13.00
2013,04,25,10,52,13.00
2013,04,25,10,53,13.00
2013,04,25,10,54,12.90
2013,04,25,10,55,12.90
2013,04,25,10,56,12.90
2013,04,25,10,57,12.80
2013,04,25,10,58,12.80
2013,04,25,10,59,12.80
2013,04,25,11,00,12.80
2013,04,25,11,01,12.80
2013,04,25,11,02,12.80
2013,04,25,11,03,12.80
2013,04,25,11,04,12.80
2013,04,25,11,05,12.80
2013,04,25,11,06,12.90
2013,04,25,11,07,13.00
2013,04,25,11,08,13.10
2013,04,25,11,09,13.20
2013,04,25,11,10,13.30
2013,04,25,11,11,13.30
2013,04,25,11,12,13.30
2013,04,25,11,13,13.20
2013,04,25,11,14,13.20
2013,04,25,11,15,13.10
2013,04,25,11,16,13.10
2013,04,25,11,17,13.20
2013,04,25,11,18,13.20
2013,04,25,11,19,13.30
2013,04,25,11,20,13.20
2013,04,25,11,21,13.20
2013,04,25,11,22,13.20
2013,04,25,11,23,13.20
2013,04,25,11,24,13.30
2013,04,25,11,25,13.30
2013,04,25,11,26,13.30
2013,04,25,11,27,13.30
2013,04,25,11,28,13.30
2013,04,25,11,29,13.30
2013,04,25,11,30,13.30
2013,04,25,11,31,13.30
2013,04,25,11,32,13.30
2013,04,25,11,33,13.30
2013,04,25,11,34,13.40
2013,04,25,11,35,13.40
2013,04,25,11,36,13.50
2013,04,25,11,37,13.60
2013,04,25,11,38,13.60
2013,04,25,11,39,13.70
2013,04,25,11,40,13.70
2013,04,25,11,41,13.70
2013,04,25,11,42,13.70
2013,04,25,11,43,13.70
2013,04,25,11,44,13.70
2013,04,25,11,45,13.70
2013,04,25,11,46,13.60
2013,04,25,11,47,13.60
2013,04,25,11,48,13.50
2013,04,25,11,49,13.50
2013,04,25,11,50,13.50
2013,04,25,11,51,13.60
2013,04,25,11,52,13.60
2013,04,25,11,53,13.80
2013,04,25,11,54,13.90
2013,04,25,11,55,14.10
2013,04,25,11,56,14.20
2013,04,25,11,57,14.20
2013,04,25,11,58,14.20
2013,04,25,11,59,14.20
2013,04,25,12,00,14.20
2013,04,25,12,01,14.20
2013,04,25,12,02,14.10
2013,04,25,12,03,14.20
2013,04,25,12,04,14.20
2013,04,25,12,05,14.20
2013,04,25,12,06,14.20
2013,04,25,12,07,14.20
2013,04,25,12,08,14.30
2013,04,25,12,09,14.40
2013,04,25,12,10,14.50
2013,04,25,12,11,14.50
2013,04,25,12,12,14.60
2013,04,25,12,13,14.60
2013,04,25,12,14,14.60
2013,04,25,12,15,14.50
2013,04,25,12,16,14.50
2013,04,25,12,17,14.40
2013,04,25,12,18,14.40
2013,04,25,12,19,14.20
2013,04,25,12,20,14.10
2013,04,25,12,21,14.00
2013,04,25,12,22,13.90
2013,04,25,12,23,13.90
2013,04,25,12,24,13.70
2013,04,25,12,25,13.70
2013,04,25,12,26,13.60
2013,04,25,12,27,13.50
2013,04,25,12,28,13.50
2013,04,25,12,29,13.40
2013,04,25,12,30,13.30
2013,04,25,12,31,13.40
2013,04,25,12,32,13.50
2013,04,25,12,33,13.60
2013,04,25,12,34,13.70
2013,04,25,12,35,13.70
2013,04,25,12,36,13.70
2013,04,25,12,37,13.80
2013,04,25,12,38,13.80
2013,04,25,12,39,13.80
2013,04,25,12,40,13.90
2013,04,25,12,41,14.00
2013,04,25,12,42,14.20
2013,04,25,12,43,14.20
2013,04,25,12,44,14.30
2013,04,25,12,45,14.30
2013,04,25,12,46,14.20
2013,04,25,12,47,14.20
2013,04,25,12,48,14.20
2013,04,25,12,49,14.30
2013,04,25,12,50,14.30
2013,04,25,12,51,14.30
2013,04,25,12,52,14.30
2013,04,25,12,53,14.20
2013,04,25,12,54,14.20
2013,04,25,12,55,14.20
2013,04,25,12,56,14.20
2013,04,25,12,57,14.20
2013,04,25,12,58,14.20
2013,04,25,12,59,14.20
2013,04,25,13,00,14.10
2013,04,25,13,01,14.10
2013,04,25,13,02,14.10
2013,04,25,13,03,14.20
2013,04,25,13,04,14.20
2013,04,25,13,05,14.20
2013,04,25,13,06,14.20
2013,04,25,13,07,14.40
2013,04,25,13,08,14.40
2013,04,25,13,09,14.30
2013,04,25,13,10,14.30
2013,04,25,13,11,14.30
2013,04,25,13,12,14.20
2013,04,25,13,13,14.30
2013,04,25,13,14,14.20
2013,04,25,13,15,14.20
2013,04,25,13,16,14.20
2013,04,25,13,17,14.20
2013,04,25,13,18,14.20
2013,04,25,13,19,14.20
2013,04,25,13,20,14.30
2013,04,25,13,21,14.40
2013,04,25,13,22,14.50
2013,04,25,13,23,14.60
2013,04,25,13,24,14.70
2013,04,25,13,25,14.70
2013,04,25,13,26,14.80
2013,04,25,13,27,14.80
2013,04,25,13,28,14.80
2013,04,25,13,29,14.80
2013,04,25,13,30,14.90
2013,04,25,13,31,14.90
2013,04,25,13,32,14.90
2013,04,25,13,33,14.90
2013,04,25,13,34,15.00
2013,04,25,13,35,15.10
2013,04,25,13,36,15.10
2013,04,25,13,37,15.20
2013,04,25,13,38,15.20
2013,04,25,13,39,15.20
2013,04,25,13,40,15.20
2013,04,25,13,41,15.30
2013,04,25,13,42,15.30
2013,04,25,13,43,15.40
2013,04,25,13,44,15.40
2013,04,25,13,45,15.40
2013,04,25,13,46,15.40
2013,04,25,13,47,15.50
2013,04,25,13,48,15.50
2013,04,25,13,49,15.50
2013,04,25,13,50,15.40
2013,04,25,13,51,15.30
2013,04,25,13,52,15.30
2013,04,25,13,53,15.20
2013,04,25,13,54,15.30
2013,04,25,13,55,15.30
2013,04,25,13,56,15.30
2013,04,25,13,57,15.30
2013,04,25,13,58,15.30
2013,04,25,13,59,15.30
2013,04,25,14,00,15.30
2013,04,25,14,01,15.30
2013,04,25,14,02,15.30
2013,04,25,14,03,15.30
2013,04,25,14,04,15.40
2013,04,25,14,05,15.50
2013,04,25,14,06,15.50
2013,04,25,14,07,15.60
2013,04,25,14,08,15.70
2013,04,25,14,09,15.70
2013,04,25,14,10,15.80
2013,04,25,14,11,15.80
2013,04,25,14,12,15.70
2013,04,25,14,13,15.70
2013,04,25,14,14,15.70
2013,04,25,14,15,15.80
2013,04,25,14,16,15.90
2013,04,25,14,17,15.90
2013,04,25,14,18,16.00
2013,04,25,14,19,16.10
2013,04,25,14,20,16.10
2013,04,25,14,21,16.00
2013,04,25,14,22,15.80
2013,04,25,14,23,15.80
2013,04,25,14,24,15.90
2013,04,25,14,25,15.90
2013,04,25,14,26,15.90
2013,04,25,14,27,15.90
2013,04,25,14,28,15.90
2013,04,25,14,29,15.80
2013,04,25,14,30,15.80
2013,04,25,14,31,15.80
2013,04,25,14,32,15.80
2013,04,25,14,33,15.80
2013,04,25,14,34,15.80
2013,04,25,14,35,15.80
2013,04,25,14,36,15.90
2013,04,25,14,37,15.90
2013,04,25,14,38,15.90
2013,04,25,14,39,15.90
2013,04,25,14,40,15.80
2013,04,25,14,41,15.80
2013,04,25,14,42,15.80
2013,04,25,14,43,15.80
2013,04,25,14,44,15.80
2013,04,25,14,45,15.90
2013,04,25,14,46,16.10
2013,04,25,14,47,16.10
2013,04,25,14,48,16.10
2013,04,25,14,49,16.20
2013,04,25,14,50,16.20
2013,04,25,14,51,16.20
2013,04,25,14,52,16.20
2013,04,25,14,53,16.30
2013,04,25,14,54,16.40
2013,04,25,14,55,16.40
2013,04,25,14,56,16.40
2013,04,25,14,57,16.40
2013,04,25,14,58,16.40
2013,04,25,14,59,16.40
2013,04,25,15,00,16.40
2013,04,25,15,01,16.40
2013,04,25,15,02,16.40
2013,04,25,15,03,16.30
2013,04,25,15,04,16.20
2013,04,25,15,05,16.10
2013,04,25,15,06,16.10
2013,04,25,15,07,16.00
2013,04,25,15,08,15.90
2013,04,25,15,09,15.90
2013,04,25,15,10,15.80
2013,04,25,15,11,15.80
2013,04,25,15,12,15.80
2013,04,25,15,13,15.80
2013,04,25,15,14,15.90
2013,04,25,15,15,16.10
2013,04,25,15,16,16.00
2013,04,25,15,17,15.90
2013,04,25,15,18,16.10
2013,04,25,15,19,16.10
2013,04,25,15,20,16.00
2013,04,25,15,21,15.90
2013,04,25,15,22,15.90
2013,04,25,15,23,16.10
2013,04,25,15,24,16.10
2013,04,25,15,25,16.10
2013,04,25,15,26,16.10
2013,04,25,15,27,16.10
2013,04,25,15,28,16.10
2013,04,25,15,29,16.10
2013,04,25,15,30,16.10
2013,04,25,15,31,16.10
2013,04,25,15,32,16.10
2013,04,25,15,33,16.10
2013,04,25,15,34,16.20
2013,04,25,15,35,16.40
2013,04,25,15,36,16.40
2013,04,25,15,37,16.40
2013,04,25,15,38,16.40
2013,04,25,15,39,16.60
2013,04,25,15,40,16.60
2013,04,25,15,41,16.60
2013,04,25,15,42,16.60
2013,04,25,15,43,16.60
2013,04,25,15,44,16.60
2013,04,25,15,45,16.40
2013,04,25,15,46,16.40
2013,04,25,15,47,16.50
2013,04,25,15,48,16.60
2013,04,25,15,49,16.50
2013,04,25,15,50,16.40
2013,04,25,15,51,16.40
2013,04,25,15,52,16.40
2013,04,25,15,53,16.40
2013,04,25,15,54,16.30
2013,04,25,15,55,16.40
2013,04,25,15,56,16.40
2013,04,25,15,57,16.40
2013,04,25,15,58,16.40
2013,04,25,15,59,16.30
2013,04,25,16,00,16.30
2013,04,25,16,01,16.30
2013,04,25,16,02,16.30
2013,04,25,16,03,16.20
2013,04,25,16,04,16.20
2013,04,25,16,05,16.10
2013,04,25,16,06,16.10
2013,04,25,16,07,16.10
2013,04,25,16,08,16.10
2013,04,25,16,09,16.10
2013,04,25,16,10,16.10
2013,04,25,16,11,16.10
2013,04,25,16,12,16.10
2013,04,25,16,13,16.20
2013,04,25,16,14,16.20
2013,04,25,16,15,16.30
2013,04,25,16,16,16.30
2013,04,25,16,17,16.40
2013,04,25,16,18,16.40
2013,04,25,16,19,16.50
2013,04,25,16,20,16.60
2013,04,25,16,21,16.70
2013,04,25,16,22,16.70
2013,04,25,16,23,16.70
2013,04,25,16,24,16.70
2013,04,25,16,25,16.70
2013,04,25,16,26,16.70
2013,04,25,16,27,16.70
2013,04,25,16,28,16.70
2013,04,25,16,29,16.80
2013,04,25,16,30,16.80
2013,04,25,16,31,16.70
2013,04,25,16,32,16.70
2013,04,25,16,33,16.80
2013,04,25,16,34,16.80
2013,04,25,16,35,16.80
2013,04,25,16,36,16.80
2013,04,25,16,37,16.80
2013,04,25,16,38,16.70
2013,04,25,16,39,16.70
2013,04,25,16,40,16.70
2013,04,25,16,41,16.80
2013,04,25,16,42,16.90
2013,04,25,16,43,16.90
2013,04,25,16,44,17.00
2013,04,25,16,45,17.10
2013,04,25,16,46,17.20
2013,04,25,16,47,17.30
2013,04,25,16,48,17.30
2013,04,25,16,49,17.30
2013,04,25,16,50,17.30
2013,04,25,16,51,17.30
2013,04,25,16,52,17.20
2013,04,25,16,53,17.10
2013,04,25,16,54,17.10
2013,04,25,16,55,17.10
2013,04,25,16,56,17.00
2013,04,25,16,57,17.00
2013,04,25,16,58,17.00
2013,04,25,16,59,17.00
2013,04,25,17,00,17.00
2013,04,25,17,01,17.00
2013,04,25,17,02,16.90
2013,04,25,17,03,16.90
2013,04,25,17,04,16.90
2013,04,25,17,05,16.90
2013,04,25,17,06,17.00
2013,04,25,17,07,17.00
2013,04,25,17,08,16.90
2013,04,25,17,09,16.90
2013,04,25,17,10,16.80
2013,04,25,17,11,16.70
2013,04,25,17,12,16.70
2013,04,25,17,13,16.70
2013,04,25,17,14,16.60
2013,04,25,17,15,16.60
2013,04,25,17,16,16.60
2013,04,25,17,17,16.60
2013,04,25,17,18,16.50
2013,04,25,17,19,16.40
2013,04,25,17,20,16.40
2013,04,25,17,21,16.40
2013,04,25,17,22,16.40
2013,04,25,17,23,16.40
2013,04,25,17,24,16.40
2013,04,25,17,25,16.40
2013,04,25,17,26,16.40
2013,04,25,17,27,16.40
2013,04,25,17,28,16.30
2013,04,25,17,29,16.30
2013,04,25,17,30,16.20
2013,04,25,17,31,16.20
2013,04,25,17,32,16.20
2013,04,25,17,33,16.20
2013,04,25,17,34,16.20
2013,04,25,17,35,16.20
2013,04,25,17,36,16.20
2013,04,25,17,37,16.20
2013,04,25,17,38,16.10
2013,04,25,17,39,16.10
2013,04,25,17,40,16.10